Currently 56°F in Simi Valley, California, USA
56°F
59°F / 39°F
5 mph NW
0.00"
Tuesday, February 20, 2018 3:30 PM PST

Simi Valley, California Climate Summary
Typical March Day

Normal High:    72.6°F (22.5°C)
Normal Low:    49.3°F (9.6°C)
Average:    60.0°F (15.5°C)

Hour    Temperature    Wind Speed    Humidity
12:00 AM    55°F (13°C)    2 mph    66%
1:00 AM    54°F (12°C)    2 mph    67%
2:00 AM    53°F (12°C)    2 mph    68%
3:00 AM    53°F (12°C)    3 mph    68%
4:00 AM    53°F (11°C)    3 mph    68%
5:00 AM    52°F (11°C)    3 mph    69%
6:00 AM    52°F (11°C)    3 mph    69%
7:00 AM    52°F (11°C)    3 mph    70%
8:00 AM    53°F (12°C)    3 mph    69%
9:00 AM    57°F (14°C)    3 mph    65%
10:00 AM    62°F (17°C)    4 mph    57%
11:00 AM    66°F (19°C)    5 mph    50%
12:00 PM    69°F (20°C)    5 mph    45%
1:00 PM    70°F (21°C)    6 mph    42%
2:00 PM    71°F (22°C)    6 mph    42%
3:00 PM    70°F (21°C)    6 mph    44%
4:00 PM    69°F (21°C)    6 mph    45%
5:00 PM    68°F (20°C)    5 mph    48%
6:00 PM    66°F (19°C)    4 mph    51%
7:00 PM    63°F (17°C)    3 mph    57%
8:00 PM    60°F (15°C)    3 mph    62%
9:00 PM    58°F (14°C)    2 mph    64%
10:00 PM    56°F (14°C)    2 mph    65%
11:00 PM    55°F (13°C)    3 mph    65%
 

The Simi Valley, California weather pages are a service of WeatherCurrents.
Copyright ©Tue Feb 20 15:31:14 PST 2018  WeatherCurrents. All rights reserved. - Submit questions and comments - Privacy Policy